ARIANE 40 R/B, 25261

Orbit data source: Space-Track

ARIANE 40 R/B, 25261 is space debris in SSO originally from a launch on Tue, 24 Mar 1998 UTC launched from the French Guiana (FRGUI). Debris objects in space refer to the collection of defunct objects orbiting the Earth. Examples of debris include non-operational satellites, rocket bodies, and fragments generated from explosions, collisions, or faulty payload assembly.

Loading next visibility...
Identifier
25261, 1998-017B
Orbit
SSO
Country
Flag of FRFR
Related business
Manufacturer
Ae/LesM
Mission
Spacecraft
Bus & Motor
ARIANE H10-3, Unknown motor
Mass
1,820 kg wet, 1,820 kg dry
Launch date (UTC)
1998-03-24 (27 years ago)
Launch vehicle
Unknown
Launch site
French Guiana (FRGUI)
Object type
Payload
Rocket body
Debris
Shape & HBR
Cyl, 5.5 m
Radar Cross Section
25.199 m², Large (>1 m²)

Expand to show TLE details & history
Last TLE update: 1 day ago

TLE from 1 day ago
0 ARIANE 40 R/B
1 25261U 98017B   25259.99079716  .00000360  00000-0  13996-3 0  9992
2 25261  98.8430 279.2666 0003078 191.9326 168.1786 14.36049316436778
Epoch: 2025-09-16T23:46Z
TLE epoch observation values (Epoch: 2025-09-16T23:46:44.874Z)
Latitude
-0.00008°
Longitude
-73.59353°
Altitude
776.668 km
Speed
7.465 km/s
True Right ascension
18h 37m 03s
True Declination
0° 00' 00"
Sunlit
Object was in daylight at epoch
Visualization orbit readout
Latitude
Unknown
Longitude
Unknown
Altitude
Unknown
Speed
Unknown
Apparent Right ascension
Unknown
Apparent Declination
Unknown
Sunlit
N/A
Visualization observer readout
Local Sidereal Time
18:33:51
Azimuth
Unknown
Elevation
Unknown
Doppler factor
Unknown
Orbital elements
Apogee altitude
770.925 km
Perigee altitude
766.525 km
Semi-major axis
7,146.862 km
Eccentricity
0.00031
Inclination
98.843°
RAAN
279.2666°
Arg. of periapsis
191.9326°
True anomaly
168.18582°
Mean anomaly
168.1786°
Eccentric anomaly
168.18221°
Mean motion
3.59228 °/min
Orbital period
100.21 mins
BSTAR
0.00013996
Loading maneuver chart data...
Computing Atmospheric mass density...
Loading historical data...
Loading historical data...
Loading historical data...
Loading historical data...
Loading historical data...
Loading historical data...
Loading historical data...

Documentation

Showing up to 5 results
|